Regional Weather Roundup
Issued by NWS

Home | Current Version | Previous Version | Text Only | Print | Product List | Glossary Off
Versions: 1 2 3 4 5 6 7 8 9 10 11 12 13 14 15 16 17 18 19 20 21 22 23 24 25 26 27 28 29 30 31 32 33 34 35 36 37 38 39 40 41 42 43 44 45 46 47 48 49 50

000
ASUS43 KIND 190409
RWRIN

WEATHER ROUNDUP FOR INDIANA
NATIONAL WEATHER SERVICE INDIANAPOLIS IN
1200 AM EDT SAT AUG 19 2017

NOTE: "FAIR" INDICATES FEW OR NO CLOUDS BELOW 12,000 FEET WITH NO
SIGNIFICANT WEATHER AND/OR OBSTRUCTIONS TO VISIBILITY.

* - STATION DOES NOT REPORT WEATHER SUCH AS PRECIPITATION OR FOG.

+ - STATION NOT QUALITY CONTROLLED BY THE NATIONAL WEATHER SERVICE.
    USE DATA WITH CAUTION...ESPECIALLY DEWPOINT AND RELATIVE
    HUMIDITY OBSERVATIONS.

INZ001>003-010>013-019-020-190500-
NORTHWEST INDIANA

CITY           SKY/WX    TMP DP  RH WIND       PRES   REMARKS
GARY /AIRPORT/ FAIR      69  63  81 W3        29.88F
KNOX *+        FAIR      63  61  94 SW5       29.89S
LA PORTE +     CLOUDY    66  63  91 CALM      29.90S
MICHIGAN CITY+ FAIR      63  63 100 CALM      29.89S
MONTICELLO +   FAIR      67  64  90 S3        29.90S
RENSSELAER +   FAIR      68  61  77 CALM      29.90F
VALPARAISO     MOCLDY    70  63  78 SW3       29.89F

$$

LMZ046-743>745-190500-
SOUTHERN LAKE MICHIGAN

STATION/POSITION TIME  TEMP    WIND        PRES    WAVE
                       AIR SEA DIR/SP/G            HT
                 (UTC) (F)     (DEG/KT/KT) (MB)    (FT)
BURNS HARBOR     0340   75     240/  5/  7 1012.2F
MICHIGAN CITY    0340   71     130/  4/  5   N/A
5NW MICH CITY    0400   72 74  150/  4/  6   N/A     1

$$

INZ004-005-014>016-021>024-190500-
NORTH CENTRAL INDIANA

CITY           SKY/WX    TMP DP  RH WIND       PRES   REMARKS
GOSHEN         FAIR      68  61  78 NE3       29.90R
LOGANSPORT +   FAIR      64  63  94 SW5       29.92S
PERU/GRISSOM   FAIR      66  65  96 SW8       29.91R
ROCHESTER +    FAIR      70  63  78 SW5       29.91S
SOUTH BEND     CLOUDY    67  64  90 CALM      29.89F
WARSAW +       FAIR      64  63  94 W3        29.90S

$$

INZ006>009-017-018-025>027-190500-
NORTHEAST INDIANA

CITY           SKY/WX    TMP DP  RH WIND       PRES   REMARKS
AUBURN +       FAIR      64  61  88 CALM      29.91R
FORT WAYNE     FAIR      65  61  87 SW6       29.91R
HUNTINGTON +   FAIR      66  64  96 CALM      29.91S
KENDALLVILLE + FAIR      64  64 100 CALM      29.91S

$$

INZ028-029-035-036-043>045-051>053-190500-
WEST CENTRAL INDIANA

CITY           SKY/WX    TMP DP  RH WIND       PRES   REMARKS
GREENCASTLE +  FAIR      68  63  83 CALM      29.95S
LAFAYETTE      FAIR      67  65  93 CALM      29.91S
TERRE HAUTE    FAIR      68  63  84 CALM      29.94S

$$

INZ030>032-037>040-046>048-054>057-064-065-190500-
CENTRAL INDIANA

CITY           SKY/WX    TMP DP  RH WIND       PRES   REMARKS
CP ATTERBURY + FAIR      63  61  94 CALM      29.94S
FRANKFORT +    MOCLDY    69  65  86 SW3       29.94
GREENWOOD *+   FAIR      66  61  84 CALM      29.95R
INDIANAPOLIS   FAIR      70  63  78 SW7       29.93R
-EAGLE CREEK   FAIR      73  63  70 W5        29.93R
KOKOMO +       FAIR      68  64  87 SW6       29.93R
MARION +       FAIR      66  63  88 SW7       29.93S
MT COMFORT *+  FAIR      66  63  88 SW3       29.94R
SHELBYVILLE    FAIR      68  62  81 SW5       29.93S
ZIONSVILLE +   FAIR      67  63  86 W5        29.95R

$$

INZ033-034-041-042-049-050-058-059-190500-
EAST CENTRAL INDIANA

CITY           SKY/WX    TMP DP  RH WIND       PRES   REMARKS
MUNCIE         FAIR      71  62  73 SW5       29.93R
RICHMOND +     FAIR      63  63 100 SW5       29.95S

$$

INZ060-061-067>069-081>083-085>088-190500-
SOUTHWEST INDIANA

CITY           SKY/WX    TMP DP  RH WIND       PRES   REMARKS
EVANSVILLE     FAIR      74  66  76 W3        29.96R
HUNTINGBURG +  FAIR      69  66  90 CALM      29.96R
WASHINGTON +   FAIR      74  63  68 MISG      29.95R

$$

INZ062-063-066-070>080-084-089>092-190500-
SOUTH CENTRAL AND SOUTHEAST INDIANA

CITY           SKY/WX    TMP DP  RH WIND       PRES   REMARKS
BEDFORD +      FAIR      72  63  73 SW3       29.95
BLOOMINGTON    FAIR      72  62  71 SW7       29.95R
MADISON *+     FAIR      68  63  83 CALM      29.97S
NORTH VERNON + FAIR      64  63  94 CALM      29.95S
SEYMOUR +      FAIR      68  63  83 CALM      29.94S

$$





USA.gov is the U.S. government's official web portal to all federal, state and local government web resources and services.